793  
ASUS41 KGYX 231010  
RWRGYX  
WEATHER ROUNDUP FOR MAINE AND NEW HAMPSHIRE  
NATIONAL WEATHER SERVICE GRAY ME  
600 AM EDT TUE MAY 23 2017  
 
MEZ002-005-006-010-012-015-018-020-021-024-026-027-029-231100-  
MAINE  
 
CITY SKY/WX TMP DP RH WIND PRES REMARKS
 
PORTLAND CLOUDY 50 48 93 N3 29.93S  
SANFORD CLOUDY 49 48 97 NW3 29.93R  
BAR HARBOR CLOUDY 47 46 97 CALM 29.95  
WISCASSET FOG 50 49 96 CALM 29.95R VSB 1/4  
ROCKLAND CLOUDY 48 47 96 CALM 29.93S  
FRYEBURG CLOUDY 48 48 100 CALM 29.93S  
LEWISTONAUBURN CLOUDY 48 47 96 NW3 29.93S  
AUGUSTA FOG 48 47 96 CALM 29.93S VSB 1/4  
WATERVILLE CLOUDY 48 48 100 CALM 29.90S FOG  
BANGOR CLOUDY 47 46 97 S5 29.93S FOG  
GREENVILLE N/A 44 44 100 CALM 29.87S  
MILLINOCKET CLOUDY 46 46 100 VRB7 29.91S FOG  
HOULTON CLOUDY 45 45 100 S7 29.89S  
PRESQUE ISLE CLOUDY 45 43 93 S8 29.87S  
FRENCHVILLE FOG 43 42 97 S10 29.81F VSB 3/4  
CARIBOU CLOUDY 45 42 89 S7 29.84F  

 
 
NHZ002-005-008-009-011-012-014-231100-  
NEW HAMPSHIRE  
 
CITY SKY/WX TMP DP RH WIND PRES REMARKS
 
PORTSMOUTH MOCLDY 49 49 98 CALM 29.91R FOG  
ROCHESTER CLOUDY 47 45 93 NW3 29.91S  
NASHUA CLOUDY 50 50 100 NW3 29.94S  
MANCHESTER CLOUDY 51 48 89 NW3 29.92R  
CONCORD CLOUDY 49 47 93 CALM 29.93S  
LACONIA CLOUDY 48 47 96 S3 29.93S  
PLYMOUTH FAIR 47 46 97 CALM 29.93R  
BERLIN CLOUDY 47 44 90 CALM 29.92S  
WHITEFIELD PTCLDY 48 45 89 CALM 29.93S  
JAFFREY CLEAR 48 48 100 CALM 29.94R  
KEENE CLOUDY 50 49 96 CALM 29.94S  
LEBANON FOG 50 49 96 CALM 29.93S VSB 3/4  
MT WASHINGTON FOG 30 30 100 W38 N/A VSB 1/16WCI 14  

 
 
VTZ005-007-008-231100-  
VERMONT  
 
CITY SKY/WX TMP DP RH WIND PRES REMARKS
 
ST JOHNSBURY N/A 48 48 100 MISG 29.92S  
MONTPELIER PTCLDY 43 43 100 CALM 29.96  
BURLINGTON PTCLDY 49 47 93 CALM 29.92S  

 
 
MAZ007-012-024-CTZ003-RIZ002-NYZ038-NYZ072-231100-  
SOUTHERN NEW ENGLAND AND NY  
 
CITY SKY/WX TMP DP RH WIND PRES REMARKS
 
BOSTON CLOUDY 53 51 93 N7 29.93S  
WORCESTER CLOUDY 49 47 93 NW6 29.93R  
NANTUCKET FOG 55 54 96 W5 29.90R VSB 1/4  
PROVIDENCE CLOUDY 54 54 100 N7 29.93R  
HARTFORD FOG 50 50 100 NW3 29.96R VSB 1/8  
ALBANY CLOUDY 46 44 93 CALM 29.97R  
NEW YORK CITY CLOUDY 59 54 83 NE6 29.94R  

 
 
ANZ081-ANZ082-ANZ150-NHZ014-MEZ023>029-231100-  
COASTAL MARINE OBSERVATIONS  
 
STATION/POSITION TIME TEMP WIND PRES WAVE
 
AIR SEA DIR/SP/G HT/PER  
(UTC) (F) (DEG/KT/KT) (MB) (FT/S)  
MOUNT DESERT ROC 1000 48 1013.5S  
ISLE OF SHOALS 0900 49 320/ 4/ 4 1013.0S  
JEFFREYS LEDGE 0906 51 N/A 3/ 5  
CASHES LEDGE BUO 0850 49 48 1012.9 3/ 5  
GEORGES BANK BUO 0850 51 47 1015.7 2/ 7  

 
   
............KEY...........
 
 
WCI - WIND CHILL  
TC - TEMPERATURE IN CELSIUS  
VSB - VISIBILITY
IN MILES  
HX - HEAT INDEX  
FAIR- INDICATES FEW OR NO CLOUDS BELOW 12,000 FT, WITH NO  
SIGNIFICANT WEATHER AND/OR S TO VISIBILITY.  
 
 
 
CLICK HERE TO GO TO PREVIOUS BULLETINS.

The Nexlab ME Page
The Nexlab NH Page Main Text Page